OLANDS SODRA UDDE current weather conditions

sailwx.info

Wind from 150 at 9 knots

Air temperature 5.0° C
Visibility: greater than 5.4 NM
Dewpoint 3.0° C

Last reported at 2017-Feb-28 02:20 UTC.
Time now 2017-Feb-28 03:37 UTC

Location: N 56°56' E 014°44'.
View on Google Maps.

See reports from other nearby stations

  
Tides and Currents Weather Stations Pressure Air Temp Water Temp Dewpoint Dewpoint Depression Visibility Wind Speed Wind Dir Waves Ship Positions
date/time (UTC)wind fromknots sea level pressurealtimeterstation pressurevisibilityair tempwater tempwave heightnotes
2017-Feb-28 02:20 150 9 5.4 5.0
2017-Feb-28 01:50 140 8 5.4 5.0
2017-Feb-28 01:20 140 9 5.4 5.0
2017-Feb-28 00:50 140 7 5.4 5.0
2017-Feb-28 00:20 140 6 5.4 5.0
2017-Feb-27 23:50 140 6 5.4 5.0
2017-Feb-27 23:20 140 6 5.4 5.0
2017-Feb-27 22:50 150 6 5.4 5.0
2017-Feb-27 22:20 140 8 5.4 6.0
2017-Feb-27 21:50 140 8 5.4 6.0
2017-Feb-27 21:20 140 7 5.4 6.0
2017-Feb-27 20:50 150 8 5.4 6.0
2017-Feb-27 20:20 140 7 5.4 6.0
2017-Feb-27 19:50 150 7 5.4 6.0
2017-Feb-27 19:20 150 8 5.4 6.0
2017-Feb-27 18:50 150 7 5.4 6.0
2017-Feb-27 18:20 150 7 4.3 6.0 Mist.
2017-Feb-27 17:50 160 8 4.9 7.0 Mist.
2017-Feb-27 17:20 170 7 3.8 7.0 Mist.
2017-Feb-27 16:50 170 9 4.3 7.0 Mist.
2017-Feb-27 16:20 170 9 3.8 7.0 Mist.
2017-Feb-27 15:50 170 8 5.4 8.0 Light drizzle.
2017-Feb-27 15:20 170 8 4.3 8.0 Mist.
2017-Feb-27 14:50 180 11 5.4 8.0
2017-Feb-27 14:20 180 11 5.4 8.0
2017-Feb-27 13:50 170 9 5.4 8.0 Mist.
2017-Feb-27 13:20 180 6 1.7 7.0 Drizzle.
2017-Feb-27 12:50 190 9 1.8 7.0 Mist.
2017-Feb-27 12:20 200 9 2.0 7.0 Light drizzle.
2017-Feb-27 11:50 190 12 1.8 7.0 Mist.
2017-Feb-27 11:20 200 11 1.6 7.0 Mist.
2017-Feb-27 10:50 210 13 2.7 7.0 Mist.
2017-Feb-27 10:20 190 12 2.6 7.0 Light rain.
2017-Feb-27 09:50 200 12 1.8 7.0 Mist.
2017-Feb-27 09:20 190 11 1.5 7.0 Mist.
2017-Feb-27 08:50 190 9 1.0 7.0 Drizzle.
2017-Feb-27 08:20 190 11 1.1 7.0 Light drizzle.
2017-Feb-27 07:50 190 11 1.0 6.0 Mist.
2017-Feb-27 07:20 190 9 1.0 6.0 Mist.
2017-Feb-27 06:50 180 9 1.5 6.0 Mist.
2017-Feb-27 06:20 180 7 1.9 6.0 Mist.
2017-Feb-27 05:50 180 7 1.3 6.0 Drizzle.
2017-Feb-27 05:20 180 7 3.2 6.0 Mist.
2017-Feb-27 04:50 180 8 2.7 6.0 Mist.
2017-Feb-27 04:20 170 8 2.7 6.0 Mist.
2017-Feb-27 03:50 170 6 2.4 6.0 Drizzle.
2017-Feb-27 03:20 190 6 1.9 6.0 Light drizzle.
2017-Feb-27 02:50 200 7 0.5 6.0 Mist.
2017-Feb-27 02:20 180 6 1.8 5.0 Mist.
2017-Feb-27 01:50 180 6 3.8 5.0 Mist.
2017-Feb-27 01:20 180 5 2.0 5.0 Mist.
2017-Feb-27 00:50 180 5 2.2 5.0 Mist.
2017-Feb-27 00:20 180 6 1.9 5.0 Mist.
2017-Feb-26 23:50 210 5 1.1 5.0 Heavy drizzle.
2017-Feb-26 23:20 210 6 0.9 5.0 Drizzle.
2017-Feb-26 22:50 220 6 1.0 4.0 Mist.
2017-Feb-26 22:20 210 6 5.4 4.0
2017-Feb-26 21:50 230 5 5.4 4.0
2017-Feb-26 21:20 210 2 1.6 4.0 Drizzle.
2017-Feb-26 20:50 2.1 4.0 Light rain.
2017-Feb-26 20:20 210 1 5.4 4.0
2017-Feb-26 19:50 200 4 5.4 4.0
2017-Feb-26 19:20 210 4 5.4 4.0
2017-Feb-26 18:50 5.4 5.0
2017-Feb-26 18:20 240 2 5.4 5.0
2017-Feb-26 17:50 230 4 5.4 5.0
2017-Feb-26 17:20 240 5 5.4 5.0
2017-Feb-26 16:50 240 5 5.4 5.0
2017-Feb-26 16:20 240 6 5.4 5.0
2017-Feb-26 15:50 250 6 5.4 6.0
2017-Feb-26 15:20 240 6 5.4 6.0
2017-Feb-26 14:50 240 7 5.4 6.0
2017-Feb-26 14:20 230 8 5.4 6.0
2017-Feb-26 13:50 260 12 5.4 6.0
2017-Feb-26 13:20 240 11 5.4 7.0
2017-Feb-26 12:50 250 12 5.4 7.0
2017-Feb-26 12:20 240 11 5.4 6.0
2017-Feb-26 11:50 240 9 5.4 7.0
2017-Feb-26 11:20 250 11 5.4 6.0
2017-Feb-26 10:50 250 11 5.4 6.0
2017-Feb-26 10:20 240 11 5.4 6.0
2017-Feb-26 09:50 250 9 5.4 6.0
2017-Feb-26 09:20 250 8 5.4 5.0
2017-Feb-26 08:50 250 6 5.4 5.0
2017-Feb-26 08:20 250 8 2.7 5.0 Mist.
2017-Feb-26 07:50 250 7 2.7 5.0 Mist.
2017-Feb-26 07:20 240 7 2.7 4.0 Mist.
2017-Feb-26 06:50 250 7 3.2 4.0 Mist.
2017-Feb-26 06:20 230 8 3.2 4.0 Mist.
2017-Feb-26 05:50 240 7 1.7 4.0 Mist.
2017-Feb-26 05:20 230 7 2.1 4.0 Mist.
2017-Feb-26 04:50 230 7 2.6 3.0 Drizzle.
2017-Feb-26 04:20 210 7 1.4 3.0 Mist.
2017-Feb-26 03:50 220 7 1.2 3.0 Mist.
2017-Feb-26 03:20 220 9 1.4 2.0 Mist.